TimeCET,TemperatureF,Dew PointF,Humidity,Sea Level PressureIn,VisibilityMPH,Wind Direction,Wind SpeedMPH,Gust SpeedMPH,PrecipitationIn,Events,Conditions,WindDirDegrees,DateUTC
12:20 AM,42.8,41.0,93,29.56,2.2,West,9.2,-,N/A,,Mostly Cloudy,260,2013-03-09 23:20:00
12:50 AM,42.8,41.0,93,29.56,2.2,West,9.2,-,N/A,,Mostly Cloudy,260,2013-03-09 23:50:00
1:00 AM,43,41,90,29.59,2,West,8.9,,,,Mist,260,2013-03-10 00:00:00
1:20 AM,41.0,41.0,100,29.56,2.2,WNW,6.9,-,N/A,,Mostly Cloudy,300,2013-03-10 00:20:00
1:50 AM,41.0,39.2,93,29.56,0.9,WNW,8.1,-,N/A,,Mostly Cloudy,290,2013-03-10 00:50:00
2:20 AM,39.2,39.2,100,29.56,0.3,West,9.2,-,N/A,Fog,Fog,280,2013-03-10 01:20:00
2:50 AM,39.2,39.2,100,29.56,0.7,West,10.4,-,N/A,,Mostly Cloudy,260,2013-03-10 01:50:00
3:20 AM,39.2,37.4,93,29.56,0.7,West,9.2,-,N/A,,Mostly Cloudy,280,2013-03-10 02:20:00
3:50 AM,37.4,37.4,100,29.56,0.7,WNW,10.4,-,N/A,,Mostly Cloudy,300,2013-03-10 02:50:00
4:00 AM,38,37,93,29.58,1,WNW,11.2,,,,Mist,300,2013-03-10 03:00:00
4:20 AM,37.4,35.6,93,29.53,0.6,West,8.1,-,N/A,,Mostly Cloudy,280,2013-03-10 03:20:00
4:50 AM,37.4,35.6,93,29.53,0.7,West,6.9,-,N/A,,Light Drizzle,280,2013-03-10 03:50:00
5:20 AM,37.4,35.6,93,29.53,1.6,West,10.4,-,N/A,,Mostly Cloudy,280,2013-03-10 04:20:00
5:50 AM,35.6,33.8,93,29.53,3.1,West,10.4,-,N/A,,Mostly Cloudy,280,2013-03-10 04:50:00
6:20 AM,35.6,33.8,93,29.53,3.7,West,9.2,-,N/A,Rain,Light Rain,280,2013-03-10 05:20:00
6:50 AM,33.8,32.0,93,29.53,1.2,West,6.9,-,N/A,Rain-Snow,Light Rain,280,2013-03-10 05:50:00
7:00 AM,33,32,93,29.59,1,West,6.7,,,Snow,Light Snow,280,2013-03-10 06:00:00
7:20 AM,32.0,30.2,93,29.56,0.4,West,6.9,-,N/A,Fog-Rain-Snow,Snow,280,2013-03-10 06:20:00
7:50 AM,32.0,30.2,93,29.56,0.4,West,5.8,-,N/A,Fog-Rain-Snow,Light Snow,280,2013-03-10 06:50:00
8:20 AM,32.0,30.2,93,29.56,-9999.0,West,5.8,-,N/A,Fog-Snow,Light Snow,270,2013-03-10 07:20:00
8:50 AM,32.0,30.2,93,29.56,0.7,West,6.9,-,N/A,Snow,Light Snow,270,2013-03-10 07:50:00
9:20 AM,32.0,30.2,93,29.56,0.9,West,5.8,-,N/A,Snow,Light Snow,280,2013-03-10 08:20:00
9:50 AM,32.0,30.2,93,29.56,1.1,WNW,5.8,-,N/A,Snow,Light Snow,290,2013-03-10 08:50:00
10:00 AM,32,30,88,29.60,1,WNW,4.5,,,Snow,Light Snow,290,2013-03-10 09:00:00
10:20 AM,32.0,30.2,93,29.56,1.2,WNW,5.8,-,N/A,Snow,Light Snow,300,2013-03-10 09:20:00
10:50 AM,32.0,30.2,93,29.56,1.7,WNW,5.8,-,N/A,Snow,Light Snow,300,2013-03-10 09:50:00
11:20 AM,32.0,30.2,93,29.56,1.9,NW,4.6,-,N/A,Rain-Snow,Light Snow,320,2013-03-10 10:20:00
11:50 AM,32.0,30.2,93,29.56,0.8,NW,4.6,-,N/A,Rain-Snow,Light Snow,320,2013-03-10 10:50:00
12:20 PM,33.8,30.2,87,29.56,1.1,NNW,5.8,-,N/A,Rain-Snow,Light Snow,330,2013-03-10 11:20:00
12:50 PM,33.8,30.2,87,29.56,1.7,NNW,6.9,-,N/A,Rain-Snow,Light Rain,340,2013-03-10 11:50:00
1:00 PM,33,31,88,29.62,2,NNW,6.7,,,Snow,Light Snow,340,2013-03-10 12:00:00
1:20 PM,33.8,32.0,93,29.56,2.2,North,6.9,-,N/A,Rain,Light Rain,350,2013-03-10 12:20:00
1:50 PM,33.8,30.2,87,29.56,-9999.0,North,6.9,-,N/A,Rain,Light Rain,350,2013-03-10 12:50:00
2:20 PM,33.8,30.2,87,29.56,3.1,NNE,8.1,-,N/A,,Mostly Cloudy,20,2013-03-10 13:20:00
2:50 PM,33.8,30.2,87,29.56,3.7,North,6.9,-,N/A,,Mostly Cloudy,10,2013-03-10 13:50:00
3:20 PM,33.8,30.2,87,29.59,3.7,North,9.2,-,N/A,,Mostly Cloudy,10,2013-03-10 14:20:00
3:50 PM,33.8,30.2,87,29.59,4.3,NNE,6.9,-,N/A,,Mostly Cloudy,20,2013-03-10 14:50:00
4:20 PM,32.0,30.2,93,29.59,3.7,NNE,8.1,-,N/A,,Mostly Cloudy,20,2013-03-10 15:20:00
4:50 PM,32.0,30.2,93,29.59,3.1,North,10.4,-,N/A,,Mostly Cloudy,360,2013-03-10 15:50:00
5:20 PM,32.0,28.4,87,29.59,3.1,North,8.1,-,N/A,,Mostly Cloudy,10,2013-03-10 16:20:00
5:50 PM,32.0,28.4,87,29.59,3.7,NNE,10.4,-,N/A,,Mostly Cloudy,30,2013-03-10 16:50:00
6:20 PM,32.0,28.4,87,29.59,3.7,NNE,10.4,-,N/A,,Mostly Cloudy,30,2013-03-10 17:20:00
6:50 PM,32.0,28.4,87,29.62,3.7,NNE,10.4,-,N/A,,Mostly Cloudy,30,2013-03-10 17:50:00
7:00 PM,32,28,81,29.66,4,NNE,11.2,,,,Overcast,30,2013-03-10 18:00:00
7:20 PM,32.0,28.4,87,29.62,3.7,NNE,11.5,-,N/A,,Mostly Cloudy,30,2013-03-10 18:20:00
7:50 PM,30.2,28.4,93,29.62,3.7,NE,11.5,-,N/A,,Mostly Cloudy,40,2013-03-10 18:50:00
8:20 PM,30.2,26.6,86,29.62,3.7,NNE,11.5,-,N/A,,Mostly Cloudy,30,2013-03-10 19:20:00
8:50 PM,30.2,26.6,86,29.62,3.7,NNE,11.5,-,N/A,,Mostly Cloudy,30,2013-03-10 19:50:00
9:20 PM,30.2,26.6,86,29.62,2.8,NE,11.5,-,N/A,,Mostly Cloudy,40,2013-03-10 20:20:00
9:50 PM,30.2,26.6,86,29.62,2.8,NE,12.7,-,N/A,,Mostly Cloudy,40,2013-03-10 20:50:00
10:00 PM,30,26,79,29.68,3,NE,13.4,,,,Mist,40,2013-03-10 21:00:00
10:20 PM,30.2,26.6,86,29.65,3.1,NE,10.4,-,N/A,,Mostly Cloudy,40,2013-03-10 21:20:00
10:50 PM,30.2,26.6,86,29.62,3.1,NE,12.7,-,N/A,,Mostly Cloudy,40,2013-03-10 21:50:00
11:20 PM,30.2,26.6,86,29.62,3.1,NE,12.7,-,N/A,,Mostly Cloudy,50,2013-03-10 22:20:00
11:50 PM,30.2,26.6,86,29.65,3.1,NE,12.7,-,N/A,,Mostly Cloudy,50,2013-03-10 22:50:00